• In Deutschland
  • Länderverzeichnis
  • Für 7 Tage
  • Wassertemperatur
  • Satellitenkarten
  • Wetterkarte
  • Widgets
  • user-avatar
    Anmelden

    Stündliche Wetter Arkadia

    Heute, 16 August, Donnerstag

    Zeit Temperatur Niederschläge Wind Luftdruck Luftfeuchtigkeit
    00:00 +19°C° 0 mm 1 m/S 664 mmHg 66%
    01:00 +19°C° 0 mm 1 m/S 664 mmHg 67%
    02:00 +18°C° 0 mm 1 m/S 664 mmHg 68%
    03:00 +18°C° 0 mm 1 m/S 664 mmHg 68%
    04:00 +18°C° 0 mm 1 m/S 664 mmHg 69%
    05:00 +19°C° 0 mm 1 m/S 664 mmHg 64%
    06:00 +21°C° 0 mm 1 m/S 665 mmHg 59%
    07:00 +22°C° 0 mm 1 m/S 665 mmHg 54%
    08:00 +24°C° 0 mm 1 m/S 666 mmHg 48%
    09:00 +25°C° 0 mm 1 m/S 666 mmHg 43%
    10:00 +27°C° 0 mm 2 m/S 667 mmHg 38%
    11:00 +26°C° 0,1 mm 2 m/S 666 mmHg 40%
    12:00 +26°C° 0,1 mm 2 m/S 666 mmHg 41%
    13:00 +26°C° 0,1 mm 3 m/S 666 mmHg 43%
    14:00 +24°C° 0,6 mm 2 m/S 666 mmHg 49%
    15:00 +23°C° 0,6 mm 2 m/S 665 mmHg 55%
    16:00 +21°C° 0,6 mm 2 m/S 665 mmHg 61%
    17:00 +20°C° 0,2 mm 2 m/S 664 mmHg 64%
    18:00 +20°C° 0,2 mm 1 m/S 664 mmHg 67%
    19:00 +20°C° 0,2 mm 1 m/S 664 mmHg 70%
    20:00 +19°C° 0 mm 1 m/S 664 mmHg 70%
    21:00 +19°C° 0 mm 1 m/S 664 mmHg 71%
    22:00 +18°C° 0 mm 1 m/S 664 mmHg 71%
    23:00 +18°C° 0 mm 1 m/S 664 mmHg 71%

    Morgen, 17 August, Freitag

    Zeit Temperatur Niederschläge Wind Luftdruck Luftfeuchtigkeit
    00:00 +18°C° 0 mm 1 m/S 664 mmHg 71%
    01:00 +18°C° 0 mm 1 m/S 664 mmHg 71%
    02:00 +16°C° 0 mm 1 m/S 664 mmHg 71%
    03:00 +16°C° 0 mm 1 m/S 663 mmHg 71%
    04:00 +16°C° 0 mm 1 m/S 663 mmHg 71%
    05:00 +18°C° 0 mm 1 m/S 664 mmHg 66%
    06:00 +20°C° 0 mm 1 m/S 664 mmHg 61%
    07:00 +21°C° 0 mm 1 m/S 665 mmHg 55%
    08:00 +23°C° 0 mm 1 m/S 666 mmHg 49%
    09:00 +25°C° 0 mm 1 m/S 666 mmHg 42%
    10:00 +26°C° 0 mm 1 m/S 667 mmHg 35%
    11:00 +27°C° 0 mm 2 m/S 667 mmHg 34%
    12:00 +27°C° 0 mm 2 m/S 667 mmHg 33%
    13:00 +28°C° 0 mm 2 m/S 667 mmHg 33%
    14:00 +27°C° 0 mm 2 m/S 667 mmHg 35%
    15:00 +26°C° 0 mm 2 m/S 666 mmHg 38%
    16:00 +26°C° 0 mm 2 m/S 666 mmHg 41%
    17:00 +24°C° 0 mm 2 m/S 666 mmHg 46%
    18:00 +23°C° 0 mm 1 m/S 665 mmHg 51%
    19:00 +21°C° 0 mm 1 m/S 665 mmHg 56%
    20:00 +21°C° 0 mm 1 m/S 665 mmHg 58%
    21:00 +20°C° 0 mm 1 m/S 665 mmHg 59%
    22:00 +20°C° 0 mm 1 m/S 665 mmHg 61%
    23:00 +20°C° 0 mm 1 m/S 665 mmHg 62%

    übermorgen, 18 August, Samstag

    Zeit Temperatur Niederschläge Wind Luftdruck Luftfeuchtigkeit
    00:00 +19°C° 0 mm 1 m/S 665 mmHg 62%
    01:00 +19°C° 0 mm 1 m/S 665 mmHg 62%
    02:00 +19°C° 0 mm 1 m/S 664 mmHg 62%
    03:00 +19°C° 0 mm 1 m/S 664 mmHg 62%
    04:00 +18°C° 0 mm 1 m/S 664 mmHg 62%
    05:00 +20°C° 0 mm 1 m/S 665 mmHg 57%
    06:00 +21°C° 0 mm 1 m/S 665 mmHg 52%
    07:00 +23°C° 0 mm 1 m/S 666 mmHg 48%
    08:00 +24°C° 0 mm 1 m/S 666 mmHg 43%
    09:00 +26°C° 0 mm 2 m/S 667 mmHg 38%
    10:00 +28°C° 0 mm 2 m/S 668 mmHg 33%
    11:00 +28°C° 0 mm 2 m/S 667 mmHg 32%
    12:00 +29°C° 0 mm 3 m/S 667 mmHg 32%
    13:00 +29°C° 0 mm 3 m/S 667 mmHg 31%
    14:00 +28°C° 0 mm 3 m/S 667 mmHg 35%
    15:00 +27°C° 0 mm 2 m/S 667 mmHg 38%
    16:00 +26°C° 0 mm 2 m/S 666 mmHg 42%
    17:00 +25°C° 0 mm 2 m/S 666 mmHg 45%
    18:00 +23°C° 0 mm 2 m/S 666 mmHg 49%
    19:00 +22°C° 0 mm 1 m/S 666 mmHg 53%
    20:00 +22°C° 0 mm 1 m/S 666 mmHg 54%
    21:00 +21°C° 0 mm 1 m/S 666 mmHg 55%
    22:00 +21°C° 0 mm 1 m/S 665 mmHg 56%
    23:00 +19°C° 0 mm 2 m/S 665 mmHg 56%

    19 August, Sonntag

    Zeit Temperatur Niederschläge Wind Luftdruck Luftfeuchtigkeit
    00:00 +19°C° 0 mm 2 m/S 665 mmHg 56%
    01:00 +18°C° 0 mm 2 m/S 665 mmHg 57%
    02:00 +18°C° 0 mm 2 m/S 665 mmHg 55%
    03:00 +18°C° 0 mm 2 m/S 664 mmHg 54%
    04:00 +18°C° 0 mm 2 m/S 664 mmHg 52%
    05:00 +19°C° 0 mm 2 m/S 665 mmHg 49%
    06:00 +21°C° 0 mm 2 m/S 665 mmHg 46%
    07:00 +23°C° 0 mm 2 m/S 666 mmHg 43%
    08:00 +24°C° 0 mm 2 m/S 666 mmHg 40%
    09:00 +26°C° 0 mm 3 m/S 667 mmHg 37%
    10:00 +27°C° 0 mm 3 m/S 667 mmHg 35%
    11:00 +27°C° 0 mm 4 m/S 667 mmHg 33%
    12:00 +28°C° 0 mm 4 m/S 667 mmHg 31%
    13:00 +28°C° 0 mm 4 m/S 667 mmHg 30%
    14:00 +28°C° 0 mm 4 m/S 667 mmHg 31%
    15:00 +27°C° 0 mm 4 m/S 666 mmHg 32%
    16:00 +27°C° 0 mm 4 m/S 666 mmHg 33%
    17:00 +25°C° 0 mm 4 m/S 666 mmHg 37%
    18:00 +22°C° 0 mm 3 m/S 666 mmHg 41%
    19:00 +21°C° 0 mm 2 m/S 665 mmHg 45%
    20:00 +20°C° 0 mm 2 m/S 665 mmHg 46%
    21:00 +20°C° 0 mm 2 m/S 665 mmHg 46%
    22:00 +19°C° 0 mm 2 m/S 665 mmHg 47%
    23:00 +19°C° 0 mm 2 m/S 665 mmHg 48%

    20 August, Montag

    Zeit Temperatur Niederschläge Wind Luftdruck Luftfeuchtigkeit
    00:00 +19°C° 0 mm 2 m/S 665 mmHg 48%
    01:00 +18°C° 0 mm 2 m/S 664 mmHg 49%
    02:00 +18°C° 0 mm 2 m/S 664 mmHg 50%
    03:00 +18°C° 0 mm 2 m/S 664 mmHg 51%
    04:00 +18°C° 0 mm 2 m/S 664 mmHg 52%
    05:00 +19°C° 0 mm 3 m/S 664 mmHg 50%
    06:00 +20°C° 0 mm 3 m/S 665 mmHg 49%
    07:00 +21°C° 0 mm 3 m/S 665 mmHg 47%
    08:00 +22°C° 0 mm 3 m/S 666 mmHg 43%
    09:00 +25°C° 0 mm 4 m/S 666 mmHg 39%
    10:00 +26°C° 0 mm 4 m/S 667 mmHg 35%
    11:00 +26°C° 0 mm 4 m/S 667 mmHg 34%
    12:00 +27°C° 0 mm 5 m/S 667 mmHg 33%
    13:00 +27°C° 0 mm 5 m/S 667 mmHg 32%
    14:00 +27°C° 0 mm 4 m/S 667 mmHg 33%
    15:00 +26°C° 0 mm 4 m/S 667 mmHg 34%
    16:00 +26°C° 0 mm 4 m/S 666 mmHg 35%
    17:00 +24°C° 0 mm 3 m/S 666 mmHg 39%
    18:00 +23°C° 0 mm 2 m/S 666 mmHg 44%
    19:00 +20°C° 0 mm 2 m/S 666 mmHg 48%
    20:00 +19°C° 0 mm 2 m/S 666 mmHg 49%
    21:00 +19°C° 0 mm 2 m/S 666 mmHg 50%
    22:00 +18°C° 0 mm 2 m/S 666 mmHg 51%
    23:00 +18°C° 0 mm 2 m/S 665 mmHg 52%

    21 August, Dienstag

    Zeit Temperatur Niederschläge Wind Luftdruck Luftfeuchtigkeit
    00:00 +18°C° 0 mm 2 m/S 665 mmHg 52%
    01:00 +18°C° 0 mm 2 m/S 665 mmHg 53%
    02:00 +17°C° 0 mm 2 m/S 665 mmHg 55%
    03:00 +17°C° 0 mm 2 m/S 665 mmHg 56%
    04:00 +17°C° 0 mm 2 m/S 665 mmHg 58%
    05:00 +18°C° 0 mm 2 m/S 665 mmHg 55%
    06:00 +19°C° 0 mm 2 m/S 666 mmHg 51%
    07:00 +20°C° 0 mm 2 m/S 666 mmHg 47%
    08:00 +23°C° 0 mm 2 m/S 667 mmHg 41%
    09:00 +24°C° 0 mm 3 m/S 668 mmHg 35%
    10:00 +26°C° 0 mm 3 m/S 668 mmHg 29%
    11:00 +26°C° 0 mm 3 m/S 668 mmHg 28%
    12:00 +27°C° 0 mm 3 m/S 668 mmHg 28%
    13:00 +28°C° 0 mm 3 m/S 668 mmHg 27%
    14:00 +27°C° 0 mm 3 m/S 668 mmHg 28%
    15:00 +27°C° 0 mm 3 m/S 668 mmHg 29%
    16:00 +26°C° 0 mm 3 m/S 667 mmHg 30%
    17:00 +24°C° 0 mm 2 m/S 667 mmHg 35%
    18:00 +23°C° 0 mm 2 m/S 667 mmHg 40%
    19:00 +21°C° 0 mm 1 m/S 666 mmHg 46%
    20:00 +20°C° 0 mm 1 m/S 666 mmHg 47%
    21:00 +19°C° 0 mm 1 m/S 666 mmHg 48%
    22:00 +19°C° 0 mm 1 m/S 666 mmHg 49%
    23:00 +18°C° 0 mm 1 m/S 666 mmHg 49%
    Mehr zeigen